ARIANE 2 DEB, 27039

Orbit data source: Space-Track

ARIANE 2 DEB, 27039 is space debris in HEO originally from a launch on Fri, 27 Jan 1989 UTC launched from the French Guiana (FRGUI). Debris objects in space refer to the collection of defunct objects orbiting the Earth. Examples of debris include non-operational satellites, rocket bodies, and fragments generated from explosions, collisions, or faulty payload assembly.

Loading next visibility...
Identifier
27039, 1989-006U
Orbit
HEO
Country
Flag of FRFR
Related business
Manufacturer
EADS/LV
Mission
Spacecraft
Bus & Motor
Unknown
Mass
Unknown
Launch date (UTC)
1989-01-27 (38 years ago)
Launch vehicle
Unknown
Launch site
French Guiana (FRGUI)
Object type
Payload
Rocket body
Debris
Shape & HBR
Unknown shape, 0.6 m
Radar Cross Section
Medium (>0.1 m² and <1 m²)

Expand to show TLE details & history
Last TLE update: 1 day ago

TLE from 1 day ago
0 ARIANE 2 DEB
1 27039U 89006U   26263.98153399 -.00000054  00000-0 -89826-3 0  9997
2 27039   7.9480 117.2573 7158245 352.7326 251.9252  2.26242603208325
Epoch: 2026-09-20T23:33Z
TLE epoch observation values (Epoch: 2026-09-20T23:33:24.536Z)
Latitude
-1.55076°
Longitude
-44.78474°
Altitude
30,835.773 km
Speed
2.272 km/s
True Right ascension
20h 33m 44s
True Declination
-1° 32' 56"
Sunlit
Object was in daylight at epoch
Visualization orbit readout
Latitude
Unknown
Longitude
Unknown
Altitude
Unknown
Speed
Unknown
Apparent Right ascension
Unknown
Apparent Declination
Unknown
Sunlit
N/A
Visualization observer readout
Local Sidereal Time
22:48:44
Azimuth
Unknown
Elevation
Unknown
Doppler factor
Unknown
Orbital elements
Apogee altitude
35,686.41 km
Perigee altitude
588.609 km
Semi-major axis
24,515.646 km
Eccentricity
0.71582
Inclination
7.948°
RAAN
117.2573°
Arg. of periapsis
352.7326°
True anomaly
198.50292°
Mean anomaly
251.9252°
Eccentric anomaly
223.62723°
Mean motion
0.56543 °/min
Orbital period
636.68 mins
BSTAR
-0.00089826
Loading maneuver chart data...
Computing Atmospheric mass density...
Loading historical data...
Loading historical data...
Loading historical data...
Loading historical data...
Loading historical data...
Loading historical data...
Loading historical data...

Documentation

Showing up to 5 results
|